Theta_e
299 291 289 289 291 292 291 292 292 288 291 290 289 288 287 286 286 287 288 291 290 290 288 287 288 290 293 295 295 291 288 289 287 288 290 292 292 292 292 296 299 301 305 309 308 310 311 315 318 319 320 320 321 321 322 321 321 322 323 322 322 324 324 324 325 326 328 327 327 327 327 326 328 328 328 327 327 326 325 323 324 325 325 325 325 324
297 291 290 292 292 292 292 289 288 289 288 289 287 285 285 285 285 287 290 290 290 290 286 285 286 287 290 294 295 289 288 290 290 290 290 292 292 292 291 292 294 298 299 298 299 301 307 310 313 316 318 317 318 320 321 321 321 321 322 322 323 323 323 324 325 326 326 328 329 327 327 328 328 328 326 327 328 327 326 326 326 326 326 326 326 324
291 290 291 291 292 291 290 289 289 288 287 286 285 284 283 284 285 287 288 290 290 290 288 285 287 288 289 293 295 292 291 292 292 293 294 294 293 292 292 292 293 293 295 296 298 298 301 304 308 313 316 318 320 320 320 321 321 321 321 322 322 323 323 323 325 325 326 327 327 328 328 329 326 328 330 330 329 328 328 327 326 327 327 327 326 325
287 290 291 293 292 292 288 288 288 288 288 285 283 282 283 283 285 284 287 290 289 289 288 285 285 287 288 291 292 293 291 292 293 292 293 293 293 293 294 294 295 294 294 294 296 296 297 301 304 308 313 316 319 319 319 320 320 322 321 322 322 322 323 323 324 323 326 326 326 325 323 323 327 325 324 328 329 328 328 327 326 326 327 327 327 326
290 290 294 292 290 292 289 286 287 286 286 285 285 282 282 284 285 285 285 287 288 289 287 287 287 287 287 288 292 290 289 290 292 290 290 290 292 294 294 293 294 296 296 296 296 295 295 296 301 306 310 314 316 318 319 320 321 322 321 322 323 323 323 324 323 322 324 321 319 320 316 316 318 316 322 325 326 327 325 326 325 325 325 326 327 327
289 289 293 289 288 290 289 286 286 287 284 285 285 286 283 284 286 287 288 289 287 286 287 288 281 283 281 286 290 292 287 287 287 289 290 292 292 292 292 294 295 296 296 296 297 297 295 296 298 302 306 310 314 316 319 321 321 322 322 322 323 324 324 324 323 323 323 322 323 322 322 320 321 323 320 321 322 325 325 325 326 325 325 326 326 327
291 288 293 291 289 288 289 288 286 288 285 282 286 287 286 287 288 288 288 288 282 281 286 285 284 280 278 284 286 287 285 287 289 287 289 291 291 292 293 294 295 296 296 295 294 293 292 294 295 298 303 308 311 315 318 319 321 321 322 322 322 323 323 324 323 322 321 322 323 323 324 324 324 323 325 326 325 327 327 327 326 326 325 326 326 326
288 286 288 289 288 287 286 287 288 289 285 284 284 287 287 288 287 288 289 287 283 285 287 284 283 280 279 287 286 283 283 285 286 288 289 290 291 292 293 294 295 296 295 296 295 294 293 294 295 297 300 306 310 313 315 317 319 320 321 321 321 322 322 323 323 322 322 323 322 322 322 323 323 323 324 323 320 323 324 326 326 326 325 325 326 326
290 284 287 286 288 286 287 290 288 290 288 284 285 287 287 288 288 288 288 286 284 284 283 283 284 280 279 280 282 283 286 287 287 289 290 290 291 292 293 294 294 295 295 295 295 294 294 294 295 296 298 303 308 311 313 316 317 319 320 320 320 321 321 322 322 321 322 322 323 323 323 322 322 322 320 311 314 319 322 325 325 325 325 325 325 326
288 290 290 290 289 287 286 285 288 290 288 286 286 287 287 288 288 289 286 286 284 283 282 283 283 280 283 279 286 282 282 285 285 287 290 291 291 293 293 292 293 293 292 292 294 295 295 295 295 295 295 296 303 308 310 311 312 315 316 317 318 320 321 321 321 321 321 322 321 322 322 322 322 319 311 312 314 316 320 324 323 325 324 324 323 324
286 289 291 289 288 287 285 284 286 290 288 288 288 287 286 284 284 283 284 282 282 278 281 282 282 282 281 285 285 285 286 286 287 288 288 289 288 289 289 289 291 291 291 292 292 293 294 292 292 292 294 295 295 301 306 308 310 312 314 316 317 319 320 320 321 321 321 321 321 322 322 322 321 319 317 315 314 316 317 321 322 323 324 324 323 323
285 286 287 286 288 287 288 286 286 286 289 291 287 284 287 285 283 284 281 283 278 277 278 277 280 281 279 283 285 288 283 284 290 289 291 291 290 287 287 288 288 288 289 290 290 291 292 291 291 292 293 294 295 297 302 307 308 310 313 314 316 317 318 319 320 320 321 321 321 322 322 322 322 320 318 318 318 316 317 319 320 320 322 322 323 323
284 284 283 287 289 289 286 287 284 285 288 288 286 287 283 277 279 276 279 276 276 275 278 276 278 278 281 283 285 285 286 286 284 287 290 291 288 286 288 288 289 290 290 291 291 291 291 292 292 292 294 293 294 296 299 304 307 310 311 312 315 316 316 318 319 320 320 320 321 321 321 322 321 321 319 319 319 315 316 316 317 317 319 320 320 321
282 282 283 286 287 288 290 285 282 281 286 286 286 284 281 276 274 274 273 268 267 274 276 278 279 278 281 280 287 289 291 290 290 289 288 287 288 289 290 290 290 291 290 291 291 291 291 292 292 292 293 294 295 295 297 300 303 306 308 309 312 315 314 314 316 318 319 320 321 321 321 322 320 320 318 318 319 315 316 315 316 316 318 319 321 321
280 277 286 285 284 286 289 290 288 283 284 286 286 286 283 280 273 272 271 275 275 276 276 277 276 276 276 283 283 292 294 292 287 286 286 286 288 288 288 288 289 290 291 290 289 291 292 293 293 294 294 293 294 295 295 297 299 301 304 306 308 311 309 312 314 316 318 319 319 319 320 320 318 319 317 317 317 316 315 314 314 314 316 318 320 321
284 283 282 286 285 287 287 287 288 286 286 284 283 284 279 283 278 274 271 272 270 272 272 273 277 277 281 283 287 286 286 288 289 288 286 288 287 286 287 289 292 293 293 291 291 291 291 292 292 292 293 292 292 293 292 294 296 299 302 303 306 310 308 310 311 314 316 317 317 316 317 317 316 314 315 314 313 315 315 314 314 313 314 317 318 319
281 281 283 284 285 288 289 287 287 289 281 283 283 283 284 283 280 273 272 274 272 271 275 272 277 280 279 286 291 289 285 288 287 286 285 287 288 285 287 289 291 293 292 292 292 292 292 292 292 291 292 292 292 292 294 295 295 297 298 300 302 305 304 307 309 312 313 314 313 313 314 314 314 315 315 315 314 314 313 313 313 313 312 314 316 317
284 280 282 283 284 286 284 286 287 287 286 283 280 285 284 284 282 280 274 268 271 270 273 271 279 279 278 281 284 287 284 288 287 287 287 286 285 286 290 290 291 292 292 291 291 292 292 292 291 294 293 293 294 294 293 294 293 294 296 297 300 300 303 303 305 307 309 311 313 313 313 314 315 315 315 315 315 314 313 311 311 311 312 314 316 316
286 277 282 282 283 286 285 287 288 288 286 287 284 287 286 278 278 278 273 269 267 268 269 268 274 275 278 283 281 283 285 290 291 288 285 286 287 289 290 291 290 289 289 289 290 290 293 294 293 294 296 296 295 294 295 297 298 294 292 294 297 299 301 302 303 302 303 308 312 313 313 314 314 315 316 316 315 314 314 312 312 312 314 313 313 311
285 277 277 283 284 285 286 286 281 285 286 286 286 284 284 282 279 275 277 272 272 269 267 272 269 280 281 279 282 285 282 286 290 288 286 288 289 290 290 290 290 289 289 289 290 290 293 294 293 295 295 296 296 296 297 297 297 295 293 294 296 298 300 301 303 304 306 307 308 309 309 311 313 313 315 314 313 312 312 312 312 312 312 312 310 311
283 282 274 282 284 284 283 284 285 286 283 282 282 282 283 282 282 279 277 277 278 267 265 268 269 279 280 283 286 290 290 291 289 289 289 288 289 289 289 289 288 288 289 289 290 292 293 294 294 295 295 295 295 296 297 297 298 296 294 295 297 300 301 303 304 305 307 307 307 307 309 309 310 311 311 312 313 312 312 311 311 311 310 308 307 306
281 281 278 280 280 281 281 283 284 286 289 286 285 282 284 280 278 277 278 277 270 274 269 266 275 281 278 285 290 290 292 292 294 288 288 287 287 287 287 287 287 288 288 288 289 291 293 293 295 294 294 294 296 297 297 297 298 297 297 298 301 302 303 303 305 307 307 308 308 309 309 309 310 310 311 311 311 310 309 308 307 305 304 303 300 301
283 281 282 276 280 282 285 283 283 283 285 285 287 285 285 284 280 276 276 277 273 272 271 268 268 281 285 287 288 291 292 289 284 285 287 287 286 285 286 286 286 288 289 289 290 292 293 294 295 294 295 295 295 295 295 297 299 299 300 300 301 303 303 305 306 307 308 309 309 309 309 308 308 309 309 308 306 305 304 302 301 301 301 299 298 298
290 281 280 278 282 282 282 283 283 282 285 286 285 283 284 285 286 284 279 276 278 273 274 273 271 280 281 280 282 283 284 282 281 282 283 285 286 286 287 287 287 289 289 288 288 289 291 291 290 293 295 296 296 296 298 298 298 299 300 301 302 302 304 305 307 308 308 308 307 307 306 305 305 305 304 303 302 301 299 299 299 298 298 297 297 296
285 282 284 273 273 276 278 281 282 284 284 283 284 283 283 281 282 278 276 274 277 277 279 275 275 281 285 281 280 281 283 285 286 284 283 287 287 287 289 288 288 289 288 288 289 290 289 289 291 296 296 296 294 294 296 299 299 299 300 301 302 303 304 305 306 306 305 304 302 301 301 301 302 301 300 299 298 297 297 297 297 297 297 296 295 295
280 282 283 278 275 274 273 275 278 281 282 280 278 281 283 284 281 281 277 274 277 276 277 275 280 281 279 281 283 282 282 284 285 284 283 284 285 286 289 289 289 289 289 288 288 288 291 293 292 291 292 294 292 295 296 297 298 298 298 300 300 301 300 301 301 302 301 301 300 299 299 298 299 299 297 297 296 296 296 296 296 296 295 296 295 294
281 282 286 284 282 280 282 281 283 285 282 282 282 282 282 281 281 281 278 273 280 277 275 281 284 281 282 284 280 285 284 286 287 284 285 286 285 285 286 287 287 288 289 290 290 289 287 288 290 292 292 294 291 291 293 295 296 295 296 296 296 297 298 298 299 299 299 299 298 298 297 297 297 297 296 296 295 295 295 295 294 295 294 293 293 292
282 283 284 285 284 286 281 280 284 288 284 284 282 282 283 282 282 282 280 281 280 276 278 284 284 282 284 281 281 284 285 284 284 283 283 282 282 284 288 286 290 287 287 286 288 288 290 290 288 288 290 290 292 289 290 291 294 295 296 296 294 295 296 296 297 297 297 297 297 296 295 295 294 295 294 293 294 294 293 293 292 292 291 291 291 291
286 285 285 284 284 282 281 283 284 286 286 285 286 284 284 284 284 283 284 287 285 283 282 287 286 284 285 284 287 286 287 287 285 286 284 283 284 286 287 288 289 289 289 290 291 290 290 291 291 290 289 290 290 290 290 291 291 292 293 293 293 293 295 295 296 296 296 295 295 294 292 292 292 292 292 292 292 292 291 291 290 290 290 289 289 288
288 285 284 285 283 282 281 282 284 285 282 283 285 285 285 285 285 286 287 288 287 285 287 281 281 284 285 286 288 288 284 284 284 283 282 284 285 287 287 288 289 290 290 292 293 293 292 291 290 290 289 289 289 289 290 291 292 293 294 293 292 293 293 295 295 295 294 293 292 291 291 291 291 292 292 292 291 290 290 289 289 288 288 287 286 285
290 281 287 283 281 280 281 281 282 284 284 282 283 285 285 286 286 287 288 288 288 287 287 283 281 281 284 284 284 283 283 282 282 283 284 283 283 287 288 289 290 290 291 293 293 293 291 290 289 288 288 289 289 290 291 293 293 293 292 292 292 293 292 293 294 293 293 291 290 290 291 291 291 291 291 290 290 289 288 288 287 286 285 284 283 283
288 279 282 282 281 276 279 280 279 281 281 280 281 283 284 284 283 286 285 288 285 285 285 284 282 284 283 284 283 284 284 285 285 285 284 285 285 287 288 289 289 291 292 292 292 291 290 290 289 289 289 289 289 289 290 292 292 291 292 291 292 291 291 292 293 292 291 290 290 290 290 290 290 290 289 289 288 288 287 286 286 285 284 283 282 282
285 280 280 281 281 277 276 281 281 281 281 280 281 284 286 287 288 288 288 287 289 289 285 283 285 285 287 287 287 284 283 286 285 284 285 285 285 286 288 289 290 291 292 291 291 291 292 292 291 291 288 288 289 288 288 291 291 291 291 291 291 291 291 292 291 291 290 290 290 290 290 290 289 288 288 287 287 286 286 285 284 283 282 282 282 282
284 284 279 282 280 273 276 280 283 281 275 279 290 290 288 286 286 285 285 287 288 287 288 290 286 288 290 289 288 287 285 286 288 289 289 291 288 284 286 288 289 290 289 290 291 291 292 290 287 288 288 289 288 288 287 288 291 291 290 290 290 290 291 291 291 290 289 289 289 289 289 289 288 287 286 286 285 285 284 284 282 282 282 281 281 282
286 285 280 281 278 274 277 281 280 276 277 289 287 290 291 290 289 287 288 289 289 289 290 290 287 284 286 290 291 291 290 290 288 289 288 286 287 288 288 288 288 289 289 289 289 289 289 288 288 287 287 287 287 287 286 286 288 289 289 289 290 290 291 291 290 290 289 289 288 288 288 287 287 286 285 284 284 283 282 282 281 281 281 281 281 281
285 285 280 278 279 277 277 280 274 276 286 285 284 281 285 289 290 288 286 289 289 289 289 288 291 289 286 287 288 290 291 290 288 286 286 285 285 288 287 288 288 288 288 290 290 289 289 289 290 290 289 286 286 286 287 287 287 288 288 288 290 289 290 290 290 289 289 288 287 287 287 287 286 285 284 283 282 281 281 281 281 280 280 280 280 280
290 287 285 279 277 277 278 280 280 285 283 287 285 283 287 285 284 285 282 286 287 288 287 288 289 290 288 289 289 286 283 285 286 291 287 287 286 285 288 291 292 291 288 287 288 290 290 290 289 288 286 286 287 286 287 286 286 287 287 287 288 288 289 289 289 288 288 288 287 286 286 286 285 284 283 281 281 280 280 280 280 280 280 280 279 279
292 287 286 284 277 279 278 274 274 277 277 283 289 288 290 288 289 289 286 286 291 291 292 291 289 290 290 286 285 284 284 285 286 290 290 286 287 289 288 288 286 285 285 287 286 287 286 286 285 285 287 286 286 286 286 285 286 286 286 287 287 287 287 288 289 288 287 287 286 286 285 285 284 282 281 280 280 280 280 280 279 279 280 280 279 278
287 291 288 286 280 276 277 277 276 275 280 283 283 285 287 288 289 287 280 283 289 290 290 291 289 289 290 288 287 284 286 285 287 291 293 292 292 289 289 287 285 285 285 285 286 286 284 285 286 285 285 286 286 285 285 285 286 286 286 286 286 286 286 287 288 286 286 286 285 284 284 283 282 282 281 280 280 280 279 279 279 278 279 279 279 278
285 284 286 283 276 280 281 277 278 279 281 281 283 284 288 289 291 287 274 281 283 289 290 291 290 290 290 290 288 287 288 286 288 292 295 293 294 289 288 288 287 287 286 283 284 284 284 284 284 284 285 286 287 285 285 285 286 286 286 284 284 285 285 286 286 284 283 283 282 282 281 281 280 280 280 280 279 279 279 278 278 278 278 277 277 276
280 275 284 281 281 280 283 277 272 278 282 278 281 286 287 292 290 281 278 285 285 289 289 291 291 292 292 289 288 288 290 294 291 287 287 290 290 288 285 285 285 285 285 284 284 284 284 284 286 286 286 286 285 284 284 285 285 285 285 284 283 285 286 284 282 281 281 281 280 280 279 279 279 279 278 279 278 278 277 278 278 278 277 276 275 275
273 276 270 274 277 278 280 279 279 279 279 282 278 285 290 288 278 281 285 281 284 283 285 290 291 291 291 290 290 292 294 286 282 287 287 288 290 287 285 282 281 281 281 282 282 283 284 284 284 283 283 283 284 284 284 285 285 285 284 283 284 285 281 280 280 280 279 279 279 278 277 277 277 277 277 277 277 277 276 276 277 277 276 276 275 274
282 282 279 281 276 270 269 276 271 275 284 286 285 283 285 286 285 283 281 283 282 283 286 286 289 288 289 289 290 291 290 285 287 287 287 284 285 285 283 282 283 283 282 282 282 281 283 283 284 283 283 281 283 283 284 285 285 284 283 283 283 279 279 279 278 278 278 277 276 276 276 276 276 276 276 276 277 277 276 275 275 275 275 275 274 274
287 282 279 280 281 280 279 276 279 284 283 288 289 286 286 286 284 284 286 286 283 283 286 288 287 288 289 291 289 289 288 285 284 285 284 283 282 281 281 280 281 281 280 281 282 282 280 283 281 282 279 280 282 282 283 284 285 283 282 282 277 277 277 277 277 277 276 275 275 275 274 274 275 275 275 276 276 276 275 275 274 274 275 275 274 274
286 286 287 283 285 285 282 285 282 282 286 290 293 293 293 291 283 284 285 287 286 284 284 286 287 286 288 290 289 288 287 286 288 286 287 288 285 283 283 282 282 282 281 281 281 280 279 283 281 280 278 279 280 281 282 282 284 281 281 277 275 276 276 275 275 276 275 275 274 274 273 273 273 274 274 274 275 275 275 274 274 274 273 274 274 274
281 284 280 284 282 279 283 282 280 280 281 288 284 282 289 291 283 284 284 286 285 285 286 288 286 286 286 286 287 283 286 287 287 285 285 285 285 283 281 280 279 279 278 278 277 278 279 278 278 279 278 276 278 279 280 280 282 281 280 274 275 275 275 275 275 275 275 274 274 273 273 272 271 271 272 272 273 275 275 275 275 275 274 274 274 274
283 280 283 283 280 285 284 287 283 283 284 285 288 283 282 285 287 282 284 284 283 284 285 284 285 287 287 286 288 288 287 285 285 286 285 283 283 282 281 281 281 280 280 280 279 278 278 278 279 279 278 278 277 278 278 277 277 278 275 274 275 275 275 275 275 275 274 273 273 272 272 273 272 272 271 271 271 271 273 273 275 275 274 274 274 274
283 282 287 278 281 285 287 286 283 284 284 288 287 286 287 287 285 282 283 283 282 283 284 284 283 283 284 285 287 287 285 283 284 284 283 284 284 283 282 281 280 278 278 278 278 278 278 280 280 279 278 279 277 277 276 276 275 274 274 274 274 274 274 274 275 274 273 272 272 272 272 273 272 272 272 272 272 273 272 272 273 274 275 274 275 274
284 286 282 281 283 283 282 278 279 284 285 285 285 284 284 286 289 288 285 283 283 285 284 282 281 282 284 287 285 284 283 282 284 285 284 284 282 282 282 281 280 279 278 278 277 278 280 280 280 279 278 279 276 276 275 273 272 272 273 274 273 273 274 274 273 273 272 271 271 271 272 272 273 273 272 271 271 269 270 273 273 274 273 273 274 276
286 285 284 284 284 285 286 287 283 284 279 284 284 287 287 286 287 288 285 285 284 285 284 284 282 280 280 282 283 284 286 284 282 282 283 283 283 282 280 279 278 278 277 276 275 276 276 276 278 277 277 276 274 274 274 271 270 271 273 273 272 273 274 273 272 271 271 271 271 271 271 271 272 271 271 271 271 270 268 274 276 274 274 273 276 277
288 287 285 285 285 286 290 284 288 287 284 287 290 289 289 288 286 287 287 288 287 285 284 284 283 281 280 280 279 283 284 282 281 281 280 280 280 279 279 279 279 278 277 275 275 275 276 275 274 274 274 273 272 273 272 271 270 271 271 272 272 273 273 272 272 271 270 270 271 271 272 272 271 271 271 271 271 271 271 271 273 276 276 276 276 277
Wind_Speed
2 9 11 11 7 8 9 11 6 2 4 2 2 3 6 5 4 2 3 2 2 1 6 6 5 7 10 14 9 1 1 2 4 6 7 8 8 8 8 9 10 10 17 10 5 6 7 10 10 9 8 8 8 8 9 10 11 11 11 9 12 10 9 8 8 8 9 9 8 7 10 11 8 7 6 7 6 6 6 6 7 7 7 7 7 7
5 8 10 7 6 8 8 3 3 2 1 8 5 5 6 5 6 3 1 1 2 4 3 2 3 8 10 14 12 4 2 7 9 9 8 11 10 8 8 10 12 15 6 5 8 6 7 8 8 9 9 9 11 11 11 13 13 11 11 13 12 9 9 10 10 10 10 10 10 9 9 6 6 6 7 8 6 7 6 7 8 8 7 8 7 7
9 13 7 5 7 6 5 5 5 5 4 3 6 5 4 6 2 6 2 1 1 4 8 1 3 7 10 15 15 7 8 8 8 10 11 12 9 7 8 11 13 8 11 7 10 7 7 7 8 9 10 10 13 13 14 13 11 12 13 13 11 10 10 10 10 10 11 9 9 9 7 8 5 5 7 7 7 7 8 8 8 8 8 8 7 7
7 6 7 7 6 7 5 6 5 5 2 3 3 4 8 2 5 7 3 1 1 2 1 1 2 7 8 10 15 11 8 9 10 10 11 8 9 10 13 14 11 11 12 13 13 11 10 9 8 7 9 12 12 12 10 11 14 12 12 12 12 10 10 10 11 11 10 9 8 7 6 6 8 6 6 7 7 7 8 9 7 7 7 7 8 8
7 2 9 6 4 5 5 3 6 7 9 3 5 3 2 1 2 3 2 0 2 1 2 1 6 9 6 8 12 5 5 7 10 6 7 8 8 9 6 5 8 13 14 14 12 10 9 9 12 14 14 10 12 13 14 13 13 11 14 13 13 12 12 12 11 12 8 6 5 4 3 3 3 0 4 6 8 8 7 7 7 7 5 6 6 7
5 4 8 7 5 6 5 7 8 7 7 6 4 6 4 2 3 2 1 1 1 3 1 2 3 10 3 10 15 9 1 5 6 7 10 12 10 7 9 13 11 11 11 12 14 12 10 12 10 8 8 11 13 13 13 13 14 13 12 12 13 12 11 11 10 11 10 9 9 8 8 8 7 9 7 10 11 8 7 8 4 6 7 6 6 6
6 3 11 14 11 7 7 7 4 7 5 3 8 9 6 4 3 0 0 2 2 4 2 0 9 9 2 7 7 8 5 9 8 6 9 8 8 8 11 12 13 13 13 10 10 7 6 10 9 10 11 13 13 14 11 11 13 13 12 12 14 13 11 10 9 10 10 10 10 12 12 11 11 11 9 7 6 7 5 5 6 6 6 7 7 6
6 7 6 8 8 10 7 9 8 12 8 9 3 10 6 7 7 5 3 5 4 1 3 0 2 7 8 10 3 3 4 7 8 11 11 11 10 10 11 13 13 13 12 11 12 12 10 10 12 15 15 12 15 14 11 12 11 12 14 13 13 11 11 10 10 11 12 12 11 11 11 11 11 12 10 7 6 5 5 6 6 6 6 7 8 8
15 7 11 11 12 10 15 11 7 11 9 3 1 9 8 9 8 7 5 4 1 2 9 3 1 4 8 5 3 1 9 9 9 9 10 10 10 12 13 14 12 12 13 10 11 12 14 15 14 13 11 14 12 10 11 12 12 12 12 11 10 12 11 10 11 11 12 12 12 12 11 11 9 8 6 4 5 6 6 7 6 7 6 7 8 8
2 13 18 16 11 14 5 7 10 11 9 3 5 5 5 4 3 1 3 3 2 1 15 5 3 5 15 3 7 1 3 11 6 8 12 12 11 11 10 9 10 9 8 7 11 13 11 11 10 9 6 5 9 7 7 6 6 6 7 9 10 12 10 10 11 12 12 13 11 11 11 12 10 7 4 5 6 5 6 7 7 7 7 6 6 7
2 5 5 6 11 4 7 1 6 13 4 5 6 4 4 5 2 3 3 2 1 7 9 4 7 4 16 10 9 8 10 4 8 6 7 9 8 9 8 8 9 8 8 8 9 11 10 6 6 5 9 8 3 5 6 7 8 7 8 9 11 12 10 10 12 12 13 12 12 12 12 13 12 9 8 7 6 6 6 7 7 7 7 6 7 7
3 2 5 2 3 3 6 4 5 2 7 10 4 3 4 1 2 2 1 2 4 10 1 2 3 5 11 7 8 7 4 8 10 9 12 11 11 7 7 7 7 6 7 6 6 9 7 6 5 4 7 6 6 5 7 8 7 9 9 10 12 10 10 10 11 11 12 11 12 11 12 12 12 10 10 11 10 9 9 8 8 6 5 6 6 6
3 3 2 1 4 11 5 8 1 3 1 5 5 5 6 2 2 3 1 4 9 8 1 1 2 1 20 5 4 1 8 9 8 8 11 12 8 6 8 8 6 4 4 5 7 7 6 7 7 7 6 5 6 8 8 9 9 9 9 10 12 13 11 11 11 12 12 11 12 12 12 11 10 10 11 10 10 8 9 8 7 7 7 6 6 6
4 1 1 3 2 5 10 11 4 2 4 8 10 8 8 5 5 8 5 1 4 6 3 1 1 7 5 6 8 7 8 9 12 12 11 8 9 9 9 6 5 5 4 5 5 5 5 5 5 5 6 6 5 6 7 6 7 7 7 8 11 12 9 8 9 11 11 12 12 11 11 11 9 10 10 9 9 8 8 8 8 9 8 8 8 7
11 5 11 11 6 5 10 12 12 6 10 11 3 9 8 6 5 9 6 12 10 7 1 3 2 9 4 5 3 15 12 8 4 4 5 7 9 9 7 7 9 9 7 4 4 4 4 5 4 5 5 4 5 5 6 5 6 5 7 8 9 8 8 9 10 9 11 11 10 10 10 9 8 9 8 8 8 8 8 7 8 7 6 7 7 8
15 6 4 2 1 9 13 3 8 7 6 3 3 4 4 12 5 2 4 2 2 2 1 3 8 4 5 4 6 6 9 11 7 7 5 10 8 5 8 9 11 10 7 3 4 3 3 3 3 3 3 3 3 3 3 5 5 6 7 7 8 10 8 9 10 10 11 10 9 8 9 9 8 7 7 6 6 6 8 8 8 8 7 7 6 5
3 8 1 3 4 12 13 7 3 9 7 6 7 12 11 3 3 5 2 1 2 3 10 2 7 8 6 9 12 7 3 10 6 7 7 11 9 5 9 9 9 11 7 4 4 4 1 1 1 3 3 3 2 3 4 5 5 6 6 7 8 8 6 9 10 10 9 8 8 8 8 8 8 8 9 9 9 9 7 7 7 7 7 5 5 5
15 5 2 3 6 1 1 2 6 3 5 7 8 11 4 1 4 4 5 1 1 6 8 3 12 6 0 13 2 8 4 9 9 9 9 8 5 6 10 9 10 10 7 3 3 3 2 1 1 1 2 3 3 3 3 3 3 3 5 6 7 6 8 7 7 7 7 8 8 8 8 8 9 9 8 8 8 7 7 5 5 4 5 7 6 6
9 4 1 1 2 1 1 4 1 0 1 8 7 5 8 5 8 2 3 4 4 5 5 3 2 6 9 12 3 1 7 13 15 9 3 7 7 10 10 10 7 5 4 4 5 3 2 3 2 2 2 1 1 2 2 1 2 2 2 3 5 7 6 6 5 4 4 5 6 7 8 8 8 7 7 7 7 6 7 7 6 7 6 5 5 6
2 6 2 1 4 3 1 6 11 10 0 1 3 6 1 2 1 4 7 3 6 6 1 9 3 13 8 6 7 5 4 9 13 11 7 10 9 9 9 8 7 5 5 4 4 3 3 3 2 2 3 2 3 2 2 2 2 3 3 4 3 3 4 5 6 7 7 7 7 7 6 6 6 7 7 7 7 7 7 7 7 6 6 7 6 6
5 3 5 1 1 3 6 6 14 14 10 3 5 7 2 0 2 4 1 5 7 4 4 3 5 10 5 8 10 11 10 12 10 12 10 8 7 8 7 5 3 3 3 4 4 4 4 3 2 2 1 1 1 1 2 2 3 2 2 3 4 6 6 6 6 6 6 6 5 6 7 6 5 6 5 6 6 7 6 6 7 6 6 6 5 7
4 4 9 4 3 7 4 1 1 10 14 9 9 9 9 8 5 8 11 3 1 3 5 2 13 9 5 3 11 11 11 11 17 8 7 6 7 6 4 3 3 4 3 3 4 4 4 3 2 1 1 2 3 2 2 2 3 2 2 2 3 3 4 5 5 5 6 5 5 6 6 6 5 6 6 7 7 7 7 7 7 8 7 8 6 5
6 4 9 6 6 6 0 2 2 2 2 7 12 10 10 6 4 4 10 8 3 1 4 3 1 16 5 9 10 10 13 9 2 1 5 5 5 4 5 4 3 3 4 4 4 4 3 3 3 3 3 3 3 3 3 2 2 3 3 3 3 4 3 4 5 5 6 6 6 7 6 7 6 7 7 8 6 7 7 7 7 7 10 8 8 6
7 5 8 2 2 3 2 1 2 2 1 2 6 2 11 16 16 8 1 3 7 1 2 2 2 13 4 2 5 5 7 7 4 1 4 5 6 4 4 4 3 2 1 1 2 2 3 2 2 3 3 4 3 3 3 2 2 2 3 3 4 5 5 4 5 5 6 6 7 7 7 6 7 8 8 8 7 8 7 7 7 6 9 9 8 9
9 4 12 5 4 2 3 3 2 2 1 6 6 4 2 4 4 3 6 2 2 8 7 5 10 15 1 2 4 3 6 9 10 6 4 6 5 4 5 2 2 2 2 3 4 4 3 2 4 4 3 4 3 3 3 3 3 3 3 3 5 5 4 5 5 6 6 7 7 6 7 6 7 8 7 8 7 8 8 8 7 8 10 9 9 8
4 5 11 13 15 15 11 14 17 17 15 1 2 4 5 7 10 6 7 4 8 4 8 5 14 7 6 3 4 4 4 7 8 6 4 4 5 5 4 2 3 3 3 4 4 3 6 5 3 3 3 3 3 4 3 3 3 3 3 3 4 5 4 5 4 5 6 7 8 6 7 6 6 8 8 8 8 9 8 8 8 8 6 9 11 8
3 3 7 8 13 14 12 2 5 11 5 8 1 6 4 3 3 4 6 6 14 5 6 12 17 6 7 1 4 4 2 7 7 4 4 3 3 4 4 3 3 3 4 5 5 4 1 2 5 5 4 3 3 3 4 4 4 3 3 3 3 4 4 4 5 5 6 6 7 7 6 7 7 8 8 8 8 7 7 7 8 8 8 6 9 11
5 6 10 11 13 13 5 4 4 12 9 8 10 7 9 9 8 6 7 13 5 5 10 16 11 9 15 5 7 6 7 6 6 4 6 5 5 5 3 2 3 3 3 2 3 5 6 5 4 5 5 4 5 3 3 3 4 4 5 5 3 4 5 4 6 6 6 6 6 7 5 6 6 7 7 7 7 8 7 7 7 8 7 7 9 10
9 13 9 10 13 5 7 9 10 8 11 13 16 14 15 15 13 14 15 21 12 12 21 24 11 18 15 8 10 9 7 6 5 4 4 3 1 1 1 2 4 5 5 5 7 5 6 7 7 7 7 7 5 5 5 4 4 3 3 4 4 3 4 5 6 6 6 6 7 6 5 6 5 6 8 7 7 8 8 7 8 8 8 8 9 8
9 10 9 12 11 7 4 8 7 12 3 7 11 14 15 14 15 18 19 23 20 18 25 2 5 13 7 9 11 9 4 4 2 1 1 0 2 4 4 5 5 7 6 7 8 9 8 8 7 8 7 7 7 6 6 5 5 5 6 5 4 5 3 5 6 7 6 6 6 6 5 6 6 7 7 8 8 8 8 8 8 9 9 9 9 9
13 8 14 7 7 6 4 4 3 8 10 7 9 12 13 14 16 20 23 26 22 19 22 8 3 6 7 6 5 3 3 2 4 5 4 3 5 5 6 7 7 6 8 9 9 9 7 7 7 6 7 8 8 8 8 7 6 5 5 5 5 5 4 4 6 5 6 6 5 6 6 6 7 7 8 7 8 8 9 9 9 10 10 9 9 9
9 2 4 7 9 5 1 6 5 5 3 4 6 9 12 16 18 22 23 21 9 14 13 9 12 15 4 3 3 1 2 4 6 5 4 6 7 6 7 8 7 9 10 11 10 8 8 9 9 10 11 9 9 8 8 8 7 6 6 6 6 5 4 5 6 7 6 7 7 6 7 7 8 8 8 8 9 9 9 10 11 10 10 9 9 8
7 6 8 9 11 5 2 8 9 8 5 1 6 17 26 26 22 15 12 6 13 19 13 13 24 1 6 5 4 3 3 7 6 6 8 9 7 7 9 9 10 10 11 10 12 12 11 11 11 9 5 5 8 9 8 7 8 8 7 6 5 6 6 6 6 7 7 7 7 7 7 7 8 9 8 7 8 8 9 11 11 10 10 10 8 8
7 9 5 5 8 1 1 7 5 7 7 15 17 12 11 15 16 12 13 15 13 4 13 17 4 10 12 10 10 8 8 8 11 13 11 9 8 8 9 9 9 10 10 10 11 10 9 6 4 5 7 8 8 8 8 8 8 7 6 6 6 7 6 7 7 8 8 8 7 7 7 8 9 9 8 7 8 8 9 10 10 9 8 9 8 9
11 9 5 2 6 4 3 6 6 12 14 12 5 11 17 16 12 19 24 21 17 18 21 14 9 3 7 10 11 12 10 10 7 9 9 10 7 8 10 12 12 12 15 11 7 7 6 5 6 6 8 9 9 8 8 7 5 7 6 6 7 6 8 7 8 7 9 9 8 8 8 8 8 9 9 8 8 8 8 9 9 10 8 8 9 10
10 10 3 4 4 4 4 6 4 13 9 3 1 2 2 10 20 17 20 22 21 19 16 17 20 10 6 7 8 10 13 10 7 7 9 8 8 9 9 10 12 11 9 9 9 6 7 10 13 13 10 5 7 7 8 9 7 9 8 6 7 7 7 8 8 8 8 9 9 9 8 9 9 9 9 9 8 8 8 8 10 11 8 8 8 7
13 8 6 3 1 6 4 6 10 5 7 7 6 5 13 14 8 13 14 16 6 7 8 13 14 12 12 13 11 2 1 2 6 13 7 8 9 10 12 12 12 11 6 4 5 8 9 7 7 6 6 8 9 10 10 8 8 8 9 9 7 7 7 7 9 9 9 9 9 9 8 9 10 10 10 9 9 9 9 9 9 8 8 10 9 9
10 13 5 10 2 3 6 1 2 5 10 21 18 4 8 6 11 11 9 20 12 19 21 19 18 18 16 8 5 4 3 4 10 14 9 7 13 15 15 11 3 0 3 5 3 3 3 4 4 5 9 9 9 9 9 10 11 10 10 10 8 8 7 8 9 8 9 9 9 9 9 9 10 11 10 9 10 10 8 7 6 8 7 11 11 10
1 10 9 9 5 4 3 8 9 11 20 4 7 10 9 11 12 9 3 20 11 15 13 16 15 14 15 15 12 8 7 8 13 16 11 12 14 11 11 9 6 6 6 5 6 5 4 5 7 7 7 9 10 10 10 11 12 12 11 10 10 9 9 10 9 9 10 9 8 8 8 9 9 10 11 10 9 9 10 9 9 7 7 7 8 9
7 7 10 10 7 12 13 11 15 9 12 3 7 6 14 14 17 9 1 22 4 15 15 17 18 19 17 15 12 11 13 12 15 20 14 12 12 5 8 8 8 9 8 4 3 3 5 6 7 6 9 12 12 10 11 10 11 11 11 10 9 10 12 12 9 6 5 7 8 7 8 8 9 9 10 10 9 8 8 7 8 9 9 7 8 9
11 5 14 17 14 14 14 9 4 8 5 3 5 9 13 18 14 10 22 11 7 10 16 17 19 20 18 15 14 15 17 22 10 2 5 9 6 4 4 1 3 4 6 5 5 6 7 7 9 12 12 8 8 10 10 10 10 10 9 10 11 14 11 7 7 8 7 7 8 7 7 6 8 10 7 8 9 9 8 7 9 9 10 10 8 9
4 5 3 3 11 13 13 15 13 7 4 9 2 13 16 12 9 22 7 1 7 4 4 12 15 15 11 14 16 18 17 4 3 2 1 7 10 4 4 3 3 2 1 1 4 6 6 6 5 4 4 5 9 10 10 11 12 10 10 11 14 10 6 8 8 8 8 8 8 7 7 7 7 7 8 8 9 10 8 6 7 8 10 9 10 11
17 15 15 15 6 5 4 8 1 10 10 15 14 1 8 13 9 5 3 1 1 6 10 7 9 6 9 10 14 17 9 2 4 4 4 1 4 5 5 4 5 6 5 4 3 4 5 6 6 5 5 4 7 8 9 11 11 10 9 11 8 6 8 8 8 8 8 8 8 8 8 7 9 9 8 9 9 11 10 8 9 8 9 11 10 11
13 11 8 6 7 13 12 12 13 10 8 17 22 14 10 6 3 7 7 2 1 5 9 8 7 9 10 13 14 13 10 6 3 5 5 3 3 3 2 3 2 2 3 2 3 6 5 5 4 4 4 5 6 7 7 11 11 9 10 8 5 7 8 9 8 9 9 8 8 8 8 8 8 8 8 9 9 9 11 10 9 8 8 9 11 11
11 17 15 18 13 13 15 16 1 3 14 16 17 13 17 11 3 5 3 6 7 4 4 4 9 6 10 12 10 10 9 10 11 7 8 10 6 6 7 7 6 5 4 4 3 4 4 6 7 6 5 5 7 7 8 7 10 9 10 6 7 9 10 9 9 10 9 9 9 8 7 7 7 8 7 8 10 11 10 10 10 10 7 8 8 9
1 3 3 5 4 3 4 1 3 1 3 10 2 2 7 12 2 2 3 4 3 5 11 9 8 9 8 6 8 5 10 11 10 8 8 7 6 5 2 2 2 2 3 2 3 4 4 4 5 6 7 5 6 7 7 7 8 12 8 8 8 9 10 11 11 10 11 9 9 9 9 9 7 6 7 7 7 8 9 12 12 10 10 8 8 8
3 3 3 5 1 9 13 11 7 3 1 7 8 1 2 3 7 3 2 3 3 6 9 2 4 10 13 11 12 11 12 8 9 9 7 5 6 7 6 6 5 6 7 7 6 7 6 6 7 8 8 8 6 7 6 6 4 5 8 9 9 9 10 11 11 10 9 10 8 8 8 10 9 8 7 7 7 7 7 7 9 10 11 10 10 9
4 4 8 3 7 12 16 6 5 6 7 11 11 8 4 5 5 5 4 2 1 1 1 1 2 2 3 7 10 9 7 6 8 8 7 9 9 7 7 7 7 5 5 4 5 6 5 7 8 8 9 9 8 6 6 5 5 6 8 8 9 9 10 10 10 11 10 10 8 8 9 9 10 11 9 8 9 9 8 7 7 10 12 13 12 12
4 9 6 7 8 5 2 2 2 1 5 7 6 5 4 5 8 7 5 1 0 0 1 1 2 4 9 8 6 5 5 7 10 9 9 7 5 6 9 7 5 5 5 6 6 7 9 8 8 8 8 6 5 6 5 5 5 7 9 9 9 10 11 10 9 8 8 8 8 8 7 8 9 9 9 9 7 5 5 9 10 8 5 1 2 7
10 12 5 7 9 11 16 15 15 10 6 7 5 10 10 9 6 6 3 3 3 6 5 5 3 0 4 2 5 6 8 7 7 5 7 7 8 6 4 4 4 5 5 4 4 5 5 5 6 6 6 4 5 5 5 5 5 5 6 8 8 9 11 10 9 8 9 8 8 8 8 8 8 7 8 8 8 8 3 3 4 3 5 5 5 4
14 13 11 12 13 16 17 5 11 6 4 7 13 12 13 8 8 8 10 11 9 6 5 6 5 2 4 4 2 7 7 4 6 4 5 4 4 3 4 5 6 5 6 5 5 5 6 4 3 4 4 4 4 5 5 5 5 6 6 7 8 9 9 10 9 8 8 9 9 10 9 8 8 7 7 7 8 8 8 6 3 5 5 4 5 6
Wind_Direction
134 173 189 198 186 182 196 206 196 170 194 184 161 174 212 199 269 276 267 305 348 337 252 229 246 229 230 253 262 191 139 253 269 260 248 247 239 232 234 231 232 233 235 244 241 221 214 216 214 214 207 213 212 213 212 212 213 209 207 200 214 206 197 191 190 195 196 200 205 208 212 215 206 207 202 207 204 203 205 199 199 198 200 194 193 191
162 191 211 185 183 188 199 156 143 95 136 183 186 193 230 186 230 237 221 352 334 171 302 340 252 257 263 268 261 167 172 239 227 235 244 247 238 232 225 239 236 236 268 275 256 229 219 217 209 202 205 202 208 215 209 212 211 209 208 210 214 201 199 199 197 196 200 204 206 202 214 209 205 205 204 211 201 206 203 204 205 203 199 197 194 187
194 204 168 163 177 179 176 179 200 184 170 163 174 182 205 247 226 280 234 222 240 146 252 271 232 256 249 259 265 225 214 236 226 215 229 229 237 229 225 233 242 251 250 244 246 229 223 221 214 204 208 209 212 213 211 212 207 209 211 214 210 205 198 203 201 197 205 203 204 201 205 200 205 211 210 212 205 198 205 207 208 204 200 194 195 188
192 217 194 184 155 162 183 184 186 217 215 149 119 149 206 238 153 255 273 11 315 172 238 156 249 266 266 264 263 252 209 242 236 227 238 225 224 221 222 220 227 239 248 247 240 228 219 213 211 209 212 212 208 213 211 208 212 213 215 211 208 207 202 203 204 204 206 202 198 204 193 193 198 200 201 206 209 206 204 210 203 206 202 199 193 184
182 179 185 148 152 161 170 171 170 186 227 202 176 151 148 139 249 165 242 288 279 325 75 337 308 277 232 260 275 241 237 247 266 245 253 256 238 239 255 274 225 230 231 238 244 232 216 210 213 208 211 204 207 209 209 205 207 210 212 207 205 207 206 206 202 200 195 181 182 173 133 136 171 92 188 204 214 209 203 202 199 201 187 195 206 198
212 246 127 141 163 181 161 190 198 162 219 245 220 177 179 179 208 300 346 166 342 312 342 159 339 261 262 233 241 257 339 249 253 237 237 240 236 236 243 241 240 238 237 232 236 231 216 215 223 219 212 206 213 214 213 205 209 209 208 204 207 210 209 207 202 192 186 192 187 180 190 190 192 210 197 202 205 197 197 201 176 180 191 196 201 198
189 172 165 172 170 182 185 198 198 157 197 169 242 160 182 211 236 126 301 100 266 233 280 35 216 268 327 258 235 252 264 256 277 262 256 250 239 228 231 236 237 232 239 238 249 246 220 223 219 220 211 211 212 218 207 207 212 209 208 203 205 207 207 203 198 187 188 196 197 197 202 204 206 216 222 215 211 206 196 171 181 182 180 192 198 205
159 161 151 147 151 170 191 211 202 173 154 230 198 159 164 199 222 225 185 211 240 290 291 308 204 259 276 248 215 228 293 275 281 270 260 251 246 233 232 234 234 234 232 230 231 232 227 225 211 219 214 206 212 210 198 208 207 205 207 202 203 205 205 201 194 189 192 197 198 201 207 209 212 212 219 200 199 183 169 178 184 175 182 189 197 201
143 157 163 167 176 176 204 204 140 165 179 217 191 151 186 196 212 214 197 221 261 14 270 177 332 305 245 274 269 173 272 267 255 262 266 258 244 241 235 235 235 235 235 225 231 230 223 223 219 219 213 214 215 206 200 205 204 206 206 203 201 204 202 200 192 192 195 197 197 201 204 212 219 213 212 173 170 174 173 181 176 180 182 186 194 198
222 181 185 167 163 201 165 123 154 159 192 266 113 69 63 55 57 110 204 207 321 281 257 206 182 232 274 223 222 349 219 251 255 258 257 251 244 243 244 246 242 244 247 236 234 240 236 232 231 225 239 236 219 209 206 210 201 204 199 203 201 208 202 198 195 194 196 197 195 201 204 209 211 199 183 163 173 176 175 185 181 180 179 184 192 200
183 343 132 141 196 171 125 118 158 176 150 122 90 64 31 39 59 35 69 102 59 252 264 122 201 186 283 223 189 172 224 188 233 259 272 271 261 262 258 250 247 243 244 241 241 245 247 245 236 217 222 227 214 198 195 201 196 191 194 200 204 209 199 195 198 193 198 196 197 203 202 204 207 195 180 176 180 172 178 188 185 184 189 185 191 190
37 40 139 249 82 115 113 100 15 137 142 137 173 129 119 8 15 49 350 67 199 253 310 295 152 176 227 290 175 207 216 197 196 215 241 258 256 255 256 247 249 249 250 254 256 257 255 261 248 223 231 221 213 191 201 202 191 192 197 195 206 208 200 195 196 196 201 196 201 205 202 204 204 190 189 193 192 183 185 184 187 190 188 195 193 187
77 142 260 351 279 144 145 127 332 65 50 145 119 136 167 248 87 258 81 236 219 222 215 110 185 51 239 231 258 283 264 255 218 213 225 239 257 261 263 253 247 249 251 248 252 257 257 240 232 224 231 224 215 208 203 203 197 197 196 195 200 209 199 195 192 197 199 198 202 201 203 206 200 197 195 197 197 188 187 185 186 184 198 192 195 196
273 300 288 228 80 253 147 165 157 132 192 157 175 166 153 170 184 217 225 333 317 274 274 174 153 263 282 299 225 269 273 241 236 228 239 248 247 249 257 276 287 279 253 248 242 245 247 243 243 233 224 221 219 215 209 204 199 197 197 196 200 211 193 194 194 197 198 203 203 200 202 203 195 199 193 196 197 189 192 186 191 191 194 195 200 198
168 232 233 160 218 182 173 188 181 155 158 190 86 168 194 186 169 203 181 201 214 206 203 269 111 228 132 247 233 211 225 265 300 288 251 248 248 251 268 289 286 280 273 235 237 236 235 236 225 220 213 215 217 211 206 198 196 187 198 192 202 202 192 187 195 194 201 203 200 199 201 198 191 192 190 194 192 185 189 191 190 193 191 194 199 200
196 199 302 153 291 153 177 173 118 105 122 224 169 69 151 226 122 146 204 143 193 206 284 213 207 190 199 264 272 232 277 278 276 279 274 270 262 263 272 261 260 262 262 240 232 258 257 239 241 234 234 227 216 219 203 200 191 190 199 195 199 200 191 191 192 198 199 200 195 192 191 193 185 186 183 186 189 192 189 189 189 191 190 196 194 194
127 230 351 351 76 163 180 137 191 150 174 202 108 206 210 127 104 88 45 26 83 48 252 132 297 280 302 297 266 277 246 269 270 264 268 260 257 245 247 246 247 253 251 241 224 230 258 293 247 225 221 213 211 209 203 198 192 197 191 192 199 203 194 193 195 196 195 192 185 190 188 182 182 181 186 188 191 192 191 188 193 189 190 178 177 182
166 164 12 119 179 298 58 177 161 195 146 105 189 214 83 121 114 149 221 348 157 200 256 89 236 277 29 274 287 237 274 278 268 248 244 258 266 255 246 240 237 241 239 238 243 245 244 243 247 243 226 223 208 209 212 225 215 200 193 193 196 198 197 204 196 194 190 186 188 184 186 186 185 185 188 186 187 187 179 181 170 153 156 182 180 169
122 76 237 261 142 130 27 116 98 330 349 170 194 183 146 202 228 290 109 237 193 235 270 295 289 271 204 237 360 343 235 243 255 252 249 265 252 241 248 249 246 250 255 241 234 241 224 201 218 216 214 226 204 188 196 181 175 178 183 194 193 196 200 191 189 184 184 182 181 180 182 182 185 186 185 187 182 172 175 175 171 176 176 155 151 145
133 125 300 319 138 182 143 159 191 195 299 110 86 170 211 117 203 140 199 171 115 239 254 281 41 257 179 224 190 249 236 243 259 281 257 243 237 236 241 247 242 230 227 231 229 234 200 184 179 193 192 181 174 151 144 152 159 179 186 151 145 138 152 153 176 177 180 186 178 182 181 185 182 180 176 170 161 166 172 170 163 156 152 159 148 142
170 106 153 221 299 115 168 208 203 171 159 149 143 188 187 136 237 111 91 163 198 188 188 251 302 257 244 204 175 206 227 252 242 237 255 252 251 250 249 263 287 272 230 222 221 207 189 163 174 175 200 198 126 98 108 138 162 166 155 147 164 156 163 169 173 173 175 164 168 161 167 162 155 153 150 151 160 156 154 148 147 145 138 120 124 129
122 180 150 149 122 206 255 283 165 156 176 178 175 195 171 128 140 178 232 46 103 154 233 154 261 270 266 188 188 199 223 222 245 238 251 267 259 259 291 294 246 247 247 224 209 197 168 162 162 133 109 100 108 104 101 103 120 133 139 159 157 149 167 136 150 159 143 146 145 152 147 148 145 143 143 143 140 137 137 137 134 129 119 117 104 112
137 96 105 150 201 182 243 348 308 356 171 180 170 207 177 169 114 150 210 223 58 263 114 184 46 272 192 190 211 201 212 229 325 163 235 259 269 276 274 277 273 224 238 219 193 186 176 168 167 155 133 120 113 117 115 110 115 128 133 137 154 150 148 154 145 141 141 140 143 141 142 141 142 137 137 132 131 128 126 122 120 128 121 115 113 100
98 102 102 1 20 300 329 14 331 303 81 144 278 208 166 194 198 202 120 165 171 246 231 251 247 267 318 344 280 302 293 314 276 264 260 295 293 291 282 271 248 206 212 116 127 140 183 183 151 144 139 126 126 132 130 126 111 117 128 141 136 139 143 142 142 140 137 135 132 134 131 134 134 130 131 130 130 124 118 116 114 111 110 116 115 111
157 223 128 118 57 342 344 347 335 322 228 225 208 180 181 58 82 159 104 75 225 208 178 153 244 264 281 338 307 283 307 287 279 264 210 261 285 322 315 304 261 214 166 161 162 169 169 170 171 173 155 148 149 141 141 134 136 139 136 141 139 141 150 141 139 132 129 127 122 123 124 126 128 123 118 115 115 117 119 120 118 119 121 116 110 115
79 176 143 162 166 170 185 195 203 200 199 144 58 117 168 162 153 137 191 163 213 246 147 180 242 251 282 312 308 301 307 291 265 250 268 229 255 290 298 286 246 211 192 185 184 172 197 193 169 160 179 176 178 164 149 143 146 143 135 140 135 135 129 125 121 124 123 122 120 119 117 116 117 121 123 123 124 126 126 124 120 117 106 120 118 106
159 137 185 177 188 199 203 47 61 95 99 182 239 130 136 121 142 121 109 140 216 209 170 231 236 265 280 291 304 288 290 254 284 349 302 289 261 257 256 265 251 232 209 198 198 201 173 181 196 200 199 198 180 185 161 152 149 146 141 124 116 122 121 121 119 118 117 118 119 120 123 124 127 129 128 128 122 115 112 113 116 115 116 113 118 118
118 170 201 181 203 206 161 168 184 128 153 156 136 166 155 156 158 140 173 219 147 85 262 239 221 238 238 249 284 285 280 276 265 264 282 269 249 231 232 260 293 281 259 254 238 214 205 206 200 201 200 200 199 192 176 166 158 158 157 152 138 124 123 118 118 114 115 121 121 121 125 122 122 119 115 112 117 114 110 109 104 106 109 115 110 113
161 198 203 176 209 161 162 157 165 152 169 171 175 164 170 174 174 182 209 222 185 202 232 243 197 231 237 191 226 233 229 235 245 249 232 250 290 277 239 232 230 240 245 233 229 217 209 208 201 201 200 199 186 183 176 165 158 148 151 148 141 127 128 129 119 120 123 124 126 123 120 113 106 108 113 114 111 112 110 105 106 106 103 100 100 100
154 211 185 178 191 149 168 155 171 152 117 152 179 180 181 170 188 199 214 226 215 217 233 105 189 240 237 204 208 227 211 208 250 303 343 207 242 247 232 227 226 231 230 231 230 221 215 212 203 202 198 195 187 179 176 174 177 176 165 161 155 141 148 135 130 130 127 124 123 120 119 117 118 117 116 115 114 112 112 112 112 108 102 101 107 112
174 213 157 165 142 182 173 100 123 154 151 162 198 186 183 182 196 205 217 229 223 228 238 235 8 284 262 219 239 279 277 300 297 282 256 238 235 228 231 233 237 238 238 237 237 231 223 216 211 205 203 199 187 188 183 178 180 175 164 158 158 154 157 140 133 131 131 125 125 127 125 124 124 122 118 117 116 119 119 118 117 110 110 114 119 122
184 223 117 133 171 212 207 137 100 93 94 131 174 188 191 195 204 214 217 223 200 230 237 257 275 246 257 258 236 316 263 241 235 247 257 251 235 218 224 240 236 240 238 235 231 224 219 216 213 209 206 196 191 185 182 179 179 170 175 167 162 157 145 138 137 136 133 132 133 134 134 131 128 121 120 126 129 129 126 123 119 119 123 124 122 119
161 127 147 168 182 195 281 135 118 103 107 232 229 204 201 204 207 223 242 222 206 213 207 216 239 186 168 211 187 273 208 237 236 234 235 250 242 213 219 227 228 234 238 231 221 218 217 215 212 211 198 187 189 188 189 174 170 182 173 169 159 143 146 143 138 134 133 138 139 141 136 136 129 126 131 137 134 133 131 124 122 126 130 128 126 119
119 137 158 165 178 53 296 124 118 116 195 225 228 201 186 204 215 225 232 226 233 179 225 227 201 155 178 198 207 223 211 224 213 224 209 203 205 219 234 241 239 237 240 235 223 217 221 217 212 198 199 195 190 183 174 179 178 166 155 152 145 153 149 143 144 143 144 145 147 144 144 140 135 136 137 137 136 135 129 130 132 130 125 124 122 120
148 139 149 157 101 144 226 120 119 210 226 234 72 156 190 205 202 212 229 224 219 218 231 235 229 219 191 200 213 224 227 240 223 228 232 230 202 200 213 223 232 235 233 231 230 230 217 198 200 199 197 195 180 172 165 169 162 142 138 148 156 161 152 158 151 154 152 154 155 152 149 146 142 139 139 140 138 133 132 132 128 128 134 132 132 130
142 122 143 44 113 70 115 150 178 226 237 38 119 41 207 195 207 212 237 235 222 218 223 224 230 212 208 222 234 221 230 256 298 265 233 234 208 210 210 221 227 225 232 229 220 221 193 199 202 202 200 156 157 168 172 166 154 152 152 150 163 165 168 161 161 160 161 159 161 160 157 150 144 142 141 140 139 137 137 139 141 138 135 122 112 106
146 113 125 111 21 144 205 172 219 9 341 264 241 200 170 197 183 191 236 253 205 213 204 225 228 220 218 219 227 252 339 338 275 273 246 225 224 224 218 227 224 234 232 253 196 221 210 206 200 184 150 164 168 165 173 157 153 151 148 157 170 170 170 170 173 172 169 166 165 162 159 154 146 146 146 144 143 144 146 146 141 135 135 123 125 126
157 151 161 144 251 106 123 242 356 279 262 245 226 211 174 179 152 170 192 262 211 210 208 213 213 214 220 208 222 199 80 169 253 255 241 224 223 224 226 236 270 287 205 230 236 234 185 178 155 154 160 163 175 175 159 155 154 155 160 165 162 171 178 186 188 175 172 172 168 161 157 154 150 148 150 151 152 151 148 141 134 139 144 136 135 128
82 138 142 158 146 86 160 189 207 213 235 239 137 152 149 125 132 114 78 262 224 195 197 205 208 210 204 195 206 132 156 207 234 243 230 216 229 218 222 232 230 238 235 217 202 198 179 166 160 158 155 162 174 181 166 162 158 159 168 168 168 173 181 195 190 180 178 169 158 156 154 151 152 152 154 155 154 152 149 150 146 137 125 123 120 122
152 163 158 187 165 189 189 195 216 212 240 224 171 158 159 133 117 108 340 256 119 181 187 190 201 206 208 197 179 162 189 220 233 238 226 210 229 180 190 215 223 229 239 220 237 193 157 140 123 149 169 186 191 163 166 162 164 168 169 171 163 175 195 197 182 162 146 146 151 152 153 154 152 154 155 152 144 142 141 136 133 137 128 120 121 123
175 181 187 191 196 191 191 219 317 276 255 238 204 157 140 141 124 129 220 233 202 184 178 181 197 201 199 184 164 198 211 216 226 249 153 186 202 199 217 180 221 212 213 191 184 148 150 170 172 180 191 188 157 159 162 164 163 175 171 167 173 197 194 162 141 148 148 146 148 150 150 147 153 149 144 142 143 136 135 144 141 136 131 128 122 119
163 135 336 78 186 184 196 206 225 253 238 175 240 163 157 107 178 208 205 145 145 180 183 188 199 209 193 181 190 208 223 178 82 35 125 182 196 202 172 153 116 79 52 137 162 164 164 174 185 177 168 165 158 163 165 166 173 175 175 174 195 191 133 138 142 140 143 147 147 144 143 144 139 138 138 137 137 139 137 133 133 136 133 130 131 129
176 174 187 188 172 51 55 206 249 256 237 143 118 166 283 178 219 153 137 37 158 158 166 203 202 205 162 194 207 217 219 183 168 173 211 227 197 208 196 176 179 178 173 149 173 210 163 169 186 186 174 155 161 166 172 171 176 178 175 193 186 135 134 132 136 138 139 140 143 148 147 146 146 144 143 145 149 144 140 141 136 134 135 134 133 133
167 184 185 212 178 174 184 194 211 225 92 147 142 178 205 198 197 167 122 154 249 171 173 179 212 196 186 191 198 215 216 214 266 242 232 256 268 256 235 232 227 188 189 213 182 177 166 167 162 156 146 154 161 169 172 177 177 176 180 186 131 128 123 129 132 135 138 146 147 147 150 149 146 143 146 149 145 142 142 144 140 138 144 145 141 142
198 195 181 188 187 182 199 208 134 186 155 171 173 187 185 198 168 199 138 152 162 224 199 150 207 199 194 195 198 194 202 214 217 200 196 223 215 212 212 214 205 204 192 183 183 168 169 169 164 151 151 165 167 172 176 181 176 168 179 161 139 138 139 136 139 143 149 154 155 153 150 141 144 147 147 153 151 148 149 144 148 142 152 148 148 149
259 192 112 94 255 314 321 166 162 157 201 210 20 15 168 185 222 119 150 142 247 174 170 181 189 192 196 189 165 199 207 210 207 213 221 232 216 232 220 197 205 174 159 145 146 159 162 136 141 152 162 177 179 174 179 182 173 176 173 142 147 143 142 144 147 155 159 157 157 156 149 143 138 140 146 150 157 159 159 156 158 154 156 160 158 158
243 163 141 182 240 175 240 209 149 203 213 210 211 317 319 223 192 154 165 210 209 169 193 228 185 184 182 169 187 191 207 192 197 212 208 213 220 218 206 208 207 189 182 186 182 156 154 154 161 177 176 181 192 179 177 176 170 152 136 156 149 150 150 153 156 155 156 160 154 150 155 153 154 150 151 152 150 150 157 163 159 158 161 165 162 159
249 194 167 193 153 183 229 207 158 194 196 201 199 202 187 193 209 209 190 161 60 22 176 164 109 133 121 182 197 187 194 176 181 200 198 209 212 206 207 207 199 190 206 183 167 174 164 177 183 181 184 191 184 177 168 166 154 141 145 146 153 148 149 154 163 162 165 161 158 160 163 160 158 157 159 165 162 159 161 175 174 170 172 172 170 162
145 123 206 175 181 247 15 357 253 189 251 245 244 245 223 187 189 210 194 130 28 93 138 124 154 174 188 207 179 164 154 201 200 192 190 198 201 205 212 203 194 191 169 176 186 180 187 187 190 191 186 186 162 164 161 157 140 148 151 154 154 156 156 162 160 154 153 154 153 162 166 165 168 168 163 159 163 164 168 171 178 178 175 171 168 187
115 183 180 131 197 214 215 208 149 159 225 239 242 217 225 222 194 192 135 208 202 214 197 185 207 222 203 204 172 190 193 197 199 174 194 198 203 206 185 177 174 170 182 182 166 190 199 199 190 180 181 157 151 156 157 148 144 153 153 153 159 161 161 158 152 152 162 162 165 164 165 167 169 167 164 162 159 150 109 70 134 163 170 169 147 125
179 184 158 185 193 218 223 126 166 168 164 190 193 210 214 191 168 178 199 213 219 208 181 168 178 194 210 239 220 186 208 182 193 169 183 197 214 183 174 170 173 176 179 169 163 196 202 196 170 151 153 146 144 156 154 150 153 158 161 163 165 168 164 155 157 163 163 170 179 176 172 166 166 169 164 165 162 160 155 139 117 128 133 147 160 159